SCP
-0 -1 -0 -0 -0 -0 -1 -1 -1 -1 -1 -1 -0 -0 -0 -0 -0 -0 -0 -0 -0 -0 -0 -0 -0 -0 0 -0 -0 -0 0 -0 -0 -0 0 -0 -0 -0 -0 -0 -0 -0 -0
-1 -1 -0 -1 -1 -1 -1 -1 -1 -1 -1 -1 -1 -0 -0 -0 -0 -0 -0 -0 -0 -0 -0 -0 -0 -0 0 -0 -0 -0 0 0 0 0 0 0 -0 -0 -0 -0 -0 -0 -0
-1 -1 -0 -1 -1 -1 -1 -1 -1 -1 -1 -1 -1 -0 -0 -0 -0 -0 -0 -0 -0 -0 -0 -0 0 0 0 -0 -0 -0 0 -0 -0 -0 0 0 0 0 -0 -0 -0 -0 -0
-0 -1 -0 -1 -1 -1 -1 -1 -1 -1 -1 -1 -1 -0 -0 -0 -0 -0 -0 -0 -0 -0 -0 -0 -0 -0 -0 -0 -0 0 -0 -0 -0 -0 0 -0 -0 0 -0 -0 -0 -0 -0
-0 -0 -0 -0 -0 -0 -1 -1 -1 -1 -1 -1 -1 -0 -0 -0 -0 -0 -0 -0 -0 -0 -0 -0 -0 -0 -0 -0 -0 -0 -0 -0 -0 0 -0 -0 -0 0 0 0 0 0 0
-0 -0 -0 -0 -0 -0 -0 -0 -1 -1 -1 -1 -0 -0 -0 -0 -0 -0 -0 0 -0 -0 -0 -0 -0 -0 -0 0 0 -0 -0 -0 -0 -0 -0 -0 -0 0 0 0 -0 -0 0
0 0 0 -0 -0 -1 -1 -0 -0 -0 -0 -0 -0 -0 -0 -0 -0 -0 0 0 0 -0 -0 -0 -0 0 0 0 0 0 -0 -0 -0 -0 0 0 0 0 0 0 0 0 0
0 0 -0 -0 -0 -1 -0 -0 -0 -0 -0 -0 -0 -0 -0 -0 -0 -0 -0 0 0 -0 -0 0 0 0 0 0 0 0 0 -0 -0 -0 -0 0 0 0 -0 -0 0 0 0
0 0 0 0 0 -0 0 0 -0 -0 -0 -0 -0 -0 -0 0 0 0 0 0 0 0 0 0 0 0 0 0 0 0 0 0 -0 0 0 0 0 0 0 0 -0 0 0
0 0 0 0 0 0 0 0 0 0 -0 -0 -0 0 0 0 0 0 0 0 0 0 0 0 0 0 0 0 0 0 0 0 0 0 0 0 0 0 0 0 0 0 0
0 0 0 0 0 0 0 0 0 0 0 0 0 0 0 0 0 0 0 0 0 0 0 0 0 0 0 0 0 0 0 0 0 0 0 0 0 0 0 0 0 1 1
0 0 0 0 0 0 0 0 0 0 0 0 0 0 0 0 0 0 0 0 0 0 0 0 0 0 0 0 0 0 0 0 0 0 0 0 0 0 0 0 1 1 1
1 1 1 1 0 0 0 0 0 0 0 0 0 0 0 0 0 0 0 0 0 0 0 0 0 0 0 0 0 0 0 0 0 0 0 0 0 0 0 0 1 2 1
1 1 1 1 1 0 0 0 0 0 0 0 0 0 0 0 0 0 0 0 0 0 0 0 0 0 0 0 0 0 0 0 0 0 0 0 0 0 0 0 1 2 1
1 1 1 1 1 0 0 0 0 0 1 0 1 1 1 0 0 0 0 0 0 0 0 0 0 0 0 0 0 0 0 0 0 1 1 1 0 0 0 1 1 1 2
1 1 1 1 1 1 1 0 0 0 0 1 1 1 1 1 1 1 1 0 0 0 0 0 0 0 0 0 0 1 1 0 0 1 0 1 1 0 0 1 1 0 1
1 1 1 1 1 1 1 1 1 1 0 1 1 1 1 1 1 1 1 0 0 0 0 0 0 0 0 1 1 1 1 1 1 0 0 0 0 0 0 1 0 0 0
2 1 1 1 1 1 2 2 1 1 1 1 1 1 1 1 1 1 1 1 0 0 0 0 0 0 1 1 1 1 0 1 1 0 0 0 0 0 0 1 0 0 0
2 2 1 1 1 1 2 2 2 1 1 1 2 2 3 1 1 1 1 1 1 1 1 1 1 1 1 1 1 0 0 1 1 0 0 0 0 0 0 0 0 0 0
2 2 2 2 2 1 2 3 2 1 2 2 3 2 2 2 1 2 1 2 1 1 1 1 1 1 1 0 0 0 0 0 0 0 0 0 0 0 0 0 0 0 0
1 2 2 2 2 3 3 2 2 2 2 2 2 2 2 2 2 2 2 2 1 1 2 1 0 0 -0 0 0 0 0 0 0 0 0 0 0 0 0 0 0 0 0
1 1 1 2 2 2 2 2 2 3 2 2 2 2 2 2 2 2 2 1 1 1 0 0 0 -0 0 0 0 0 0 0 0 0 0 0 0 0 0 0 0 0 0
0 0 1 1 1 2 2 3 2 1 1 1 2 2 2 1 2 1 1 1 1 0 0 0 0 0 0 0 0 0 0 0 0 0 0 0 0 0 0 0 0 0 0
0 1 1 2 2 2 2 1 1 1 1 1 1 1 1 1 1 1 1 1 0 -0 0 0 0 0 0 0 1 1 1 0 0 0 0 0 0 0 0 0 0 0 0
0 1 2 3 2 1 1 1 1 2 2 1 2 2 1 1 1 0 0 0 0 0 0 0 1 1 0 0 1 1 1 0 0 0 0 0 0 0 0 0 0 0 0
0 1 3 2 1 1 1 1 2 2 2 2 2 1 1 1 1 1 1 1 0 0 1 0 1 1 1 1 1 1 0 0 0 0 0 0 0 0 0 0 0 0 0
Wind_Speed_500mb
42 52 53 48 42 39 36 35 40 44 43 38 32 26 23 22 24 26 32 35 35 34 32 32 30 25 19 19 17 15 16 17 18 18 16 14 15 16 17 17 18 11 11
49 53 51 46 45 40 38 37 43 45 42 37 32 26 22 22 25 30 33 33 30 28 28 28 29 24 18 17 16 16 17 19 20 20 18 19 16 14 13 14 15 10 9
50 55 52 48 48 43 40 38 43 43 39 35 31 25 24 26 29 34 33 31 29 28 28 26 25 22 19 19 20 20 23 22 22 20 23 13 5 13 12 12 12 10 9
52 57 54 52 48 45 42 40 39 38 35 32 29 26 26 28 33 35 31 29 28 28 27 26 25 24 23 24 24 26 23 21 19 18 18 9 7 10 11 12 11 10 10
53 58 58 54 49 45 44 41 38 34 31 30 29 29 29 31 34 33 29 27 27 27 26 26 26 27 28 29 29 24 19 18 16 19 4 2 5 1 8 11 10 9 10
54 56 57 56 51 48 45 42 36 30 28 29 30 31 32 35 36 33 29 27 27 27 26 26 27 28 29 31 28 21 17 15 14 5 2 2 5 9 4 7 7 5 6
51 51 59 58 55 51 47 43 35 30 26 26 30 31 33 34 35 31 27 26 27 27 25 25 26 28 30 29 24 18 15 11 12 4 2 2 4 6 4 1 2 1 2
48 49 62 60 56 53 49 45 38 32 27 26 28 30 31 33 33 29 26 25 26 25 24 25 25 27 29 26 22 18 15 12 1 7 5 1 8 8 10 13 12 7 4
45 46 59 61 57 53 51 46 40 34 29 26 27 29 30 31 32 29 27 25 25 25 24 23 24 27 26 25 25 21 17 14 7 13 8 5 18 13 15 14 18 17 16
44 45 48 52 60 58 54 48 42 36 31 27 25 27 28 29 32 30 27 26 25 26 26 26 27 27 29 29 26 24 22 21 15 16 15 16 22 24 23 23 21 18 21
46 46 47 48 51 49 48 53 46 39 33 30 28 28 29 32 33 32 30 28 26 26 28 30 32 32 32 31 29 27 25 18 21 20 21 27 26 26 26 27 25 23 22
52 51 50 49 49 48 43 48 50 46 41 38 35 34 32 28 30 29 31 30 30 31 31 33 35 35 34 24 27 33 29 25 23 23 22 32 26 24 22 23 25 25 24
53 51 51 49 49 49 44 42 41 39 38 39 39 37 32 28 28 29 27 35 37 37 33 36 36 35 26 27 27 25 25 27 23 25 27 32 29 26 21 23 26 30 32
56 54 54 52 53 53 44 43 41 39 38 36 37 41 35 33 30 29 27 26 29 27 29 28 27 27 31 30 30 29 28 27 26 24 27 32 29 28 28 30 30 34 36
57 55 53 53 56 57 48 42 41 40 40 37 37 42 37 34 32 29 28 27 27 27 30 30 29 29 30 30 29 30 29 29 27 22 23 29 23 25 29 31 31 32 33
54 55 52 56 58 61 54 43 40 39 36 37 36 37 44 35 32 29 29 27 27 27 27 29 29 30 30 31 32 32 29 29 27 28 24 26 33 31 33 33 33 29 26
54 49 52 54 59 62 63 54 41 37 36 34 36 37 39 40 35 31 28 27 28 32 31 30 29 29 30 30 29 28 27 33 35 32 33 30 36 51 51 41 36 41 33
49 50 48 48 52 59 65 62 50 37 32 33 33 33 37 39 37 34 30 28 28 28 25 25 26 28 29 25 26 26 28 32 37 49 54 55 63 55 45 38 33 44 46
46 45 49 52 51 56 63 58 55 45 34 31 33 36 39 40 35 36 31 31 41 30 31 29 27 29 25 23 30 40 49 47 52 61 58 64 49 41 38 38 27 35 40
43 43 44 51 54 55 60 58 51 38 32 37 33 30 32 29 32 36 34 36 40 30 28 29 28 30 31 35 44 41 41 39 36 30 29 29 28 20 21 29 38 32 41
40 43 44 46 50 54 56 53 45 38 35 29 22 26 25 26 31 36 40 35 38 34 33 28 29 36 44 42 42 33 32 30 24 19 21 13 15 22 24 28 31 26 31
41 43 46 46 55 53 49 45 41 34 26 22 23 27 30 32 33 39 36 34 39 38 29 25 29 44 46 25 23 27 27 16 16 13 16 18 18 18 23 26 29 38 47
42 45 46 45 50 49 40 46 43 26 21 23 35 33 25 27 34 33 35 38 40 34 40 35 40 43 26 23 27 24 24 23 17 25 19 18 22 23 28 32 33 37 39
41 40 38 39 50 45 51 43 31 24 20 19 19 23 23 23 26 34 39 41 36 37 32 38 33 25 23 26 26 27 28 29 29 32 32 32 36 37 37 41 39 41 43
40 35 35 37 49 45 42 30 25 21 13 8 12 17 23 27 28 32 31 39 41 39 30 25 26 28 23 28 26 28 30 29 32 36 48 51 46 45 47 46 52 48 48
37 36 36 46 44 39 31 28 26 19 14 11 9 11 17 26 28 27 26 30 31 25 26 24 33 29 26 26 25 25 28 33 38 42 51 54 60 65 59 54 54 53 54
Wind_Direction_500mb
162 168 169 173 172 171 169 168 173 175 172 168 162 154 147 142 147 155 153 152 153 155 161 168 165 159 149 151 144 133 123 120 117 111 108 106 102 100 101 102 103 85 96
163 172 173 176 172 171 169 169 171 173 172 170 167 164 157 152 156 158 157 159 158 160 163 167 170 167 165 156 148 135 127 122 117 111 110 99 96 96 102 102 105 132 100
164 174 176 178 173 172 170 167 169 171 173 173 173 171 165 161 162 161 162 165 163 161 162 164 169 173 170 162 150 141 129 120 111 103 98 87 82 84 98 103 106 109 104
169 174 178 179 175 174 170 167 169 173 176 178 179 177 174 169 166 164 166 169 169 169 171 175 179 177 171 162 150 142 133 122 113 106 66 115 102 80 87 91 98 106 104
170 174 179 178 177 177 173 170 170 173 178 183 185 184 178 174 171 168 170 172 173 174 173 174 174 173 168 160 152 149 146 138 126 87 147 119 132 258 89 93 97 98 96
170 175 178 177 179 178 176 173 172 176 181 184 185 185 181 177 174 173 174 174 175 174 172 171 173 171 167 162 161 161 156 144 120 149 149 256 174 224 123 111 93 76 86
168 172 178 179 180 181 178 175 177 180 179 182 185 186 182 181 178 177 177 176 176 175 173 172 173 172 168 167 172 172 169 158 113 215 126 112 248 261 266 236 121 115 48
171 174 180 180 183 183 181 181 182 181 179 179 183 186 186 185 183 183 182 181 180 179 176 176 177 176 175 178 185 195 195 192 234 255 272 269 256 253 275 286 290 296 308
175 173 180 181 185 186 185 187 187 186 183 181 181 184 186 189 190 191 189 188 186 185 187 187 187 187 189 199 208 215 225 232 250 269 262 260 257 269 274 277 270 275 285
178 177 177 180 186 188 188 191 192 191 188 184 183 184 187 190 196 200 201 198 196 198 198 201 203 204 210 217 225 234 246 262 259 263 269 255 280 280 286 282 270 270 281
182 183 182 184 184 182 189 193 194 196 195 191 188 188 189 193 199 206 208 208 208 209 211 215 219 220 224 230 236 244 253 251 256 265 262 269 279 281 284 273 260 263 267
184 186 186 185 185 183 189 195 196 198 198 196 195 193 193 193 201 206 214 213 215 217 221 227 231 234 237 238 251 248 253 240 250 256 261 267 275 280 286 265 255 260 267
186 186 188 188 185 186 190 194 192 196 197 198 199 202 194 201 205 205 215 216 220 224 229 233 234 237 241 238 242 247 248 252 258 260 254 263 262 260 262 261 264 267 267
191 189 190 192 192 189 192 195 196 198 200 200 203 209 202 205 210 206 212 217 218 229 226 235 236 229 233 239 241 246 254 250 257 257 259 261 258 263 263 267 270 273 275
195 194 196 194 198 198 192 199 198 200 205 205 208 212 207 208 213 213 217 216 224 225 235 232 237 245 249 247 248 253 251 252 248 245 242 262 270 282 282 278 276 269 270
198 197 196 199 202 203 201 202 203 205 212 206 211 214 214 213 222 220 222 226 230 233 234 239 244 245 253 252 257 253 250 248 250 248 256 262 258 275 291 283 276 264 270
200 196 200 204 211 210 209 212 205 215 211 215 214 215 218 219 225 216 228 232 233 241 240 243 241 247 245 249 249 252 255 260 254 257 265 272 282 286 282 275 271 274 275
198 200 200 203 213 213 216 222 217 214 218 220 219 223 220 219 218 231 231 236 240 238 242 242 244 244 243 244 254 258 269 265 263 267 279 284 294 284 273 260 269 263 264
203 201 204 207 216 216 218 220 224 219 214 220 219 217 228 223 228 234 235 238 239 240 244 244 241 238 241 251 255 265 271 275 276 277 278 283 289 279 268 247 264 269 261
204 204 205 207 212 216 218 218 226 223 215 219 216 219 226 227 232 238 238 236 245 239 244 237 241 237 257 269 279 280 274 274 283 284 277 278 262 257 271 260 270 274 270
199 200 200 205 214 217 217 215 220 217 219 215 211 218 227 232 240 240 234 242 242 234 238 256 265 264 275 274 287 294 287 270 254 256 259 265 258 275 265 273 279 275 286
200 199 201 205 212 216 215 212 214 202 205 209 215 226 241 249 245 252 244 239 245 245 237 228 240 268 278 263 269 277 279 266 262 261 245 253 260 270 283 288 283 289 288
203 208 203 197 214 210 212 214 215 198 199 211 236 238 252 250 251 243 233 246 247 236 235 243 259 264 256 262 258 257 285 279 301 295 272 274 272 290 287 287 289 286 285
207 206 199 195 214 204 213 213 199 195 204 225 237 238 244 235 244 248 245 237 234 240 245 266 259 236 247 256 259 267 262 273 286 287 274 276 285 292 295 297 290 287 289
207 197 191 188 209 208 208 203 200 194 207 210 213 223 227 244 238 241 239 235 240 255 258 245 237 246 248 252 261 267 273 275 278 280 288 289 286 289 292 290 287 284 294
194 187 183 202 200 203 204 201 192 196 177 179 214 223 235 237 238 236 226 229 240 242 249 250 247 245 241 242 252 262 271 279 282 283 284 285 289 293 292 289 287 289 291
Wind_Speed_850mb
42 52 53 48 42 39 36 35 40 44 43 38 32 26 23 22 24 26 32 35 35 34 32 32 30 25 19 19 17 15 16 17 18 18 16 14 15 16 17 17 18 11 11
49 53 51 46 45 40 38 37 43 45 42 37 32 26 22 22 25 30 33 33 30 28 28 28 29 24 18 17 16 16 17 19 20 20 18 19 16 14 13 14 15 10 9
50 55 52 48 48 43 40 38 43 43 39 35 31 25 24 26 29 34 33 31 29 28 28 26 25 22 19 19 20 20 23 22 22 20 23 13 5 13 12 12 12 10 9
52 57 54 52 48 45 42 40 39 38 35 32 29 26 26 28 33 35 31 29 28 28 27 26 25 24 23 24 24 26 23 21 19 18 18 9 7 10 11 12 11 10 10
53 58 58 54 49 45 44 41 38 34 31 30 29 29 29 31 34 33 29 27 27 27 26 26 26 27 28 29 29 24 19 18 16 19 4 2 5 1 8 11 10 9 10
54 56 57 56 51 48 45 42 36 30 28 29 30 31 32 35 36 33 29 27 27 27 26 26 27 28 29 31 28 21 17 15 14 5 2 2 5 9 4 7 7 5 6
51 51 59 58 55 51 47 43 35 30 26 26 30 31 33 34 35 31 27 26 27 27 25 25 26 28 30 29 24 18 15 11 12 4 2 2 4 6 4 1 2 1 2
48 49 62 60 56 53 49 45 38 32 27 26 28 30 31 33 33 29 26 25 26 25 24 25 25 27 29 26 22 18 15 12 1 7 5 1 8 8 10 13 12 7 4
45 46 59 61 57 53 51 46 40 34 29 26 27 29 30 31 32 29 27 25 25 25 24 23 24 27 26 25 25 21 17 14 7 13 8 5 18 13 15 14 18 17 16
44 45 48 52 60 58 54 48 42 36 31 27 25 27 28 29 32 30 27 26 25 26 26 26 27 27 29 29 26 24 22 21 15 16 15 16 22 24 23 23 21 18 21
46 46 47 48 51 49 48 53 46 39 33 30 28 28 29 32 33 32 30 28 26 26 28 30 32 32 32 31 29 27 25 18 21 20 21 27 26 26 26 27 25 23 22
52 51 50 49 49 48 43 48 50 46 41 38 35 34 32 28 30 29 31 30 30 31 31 33 35 35 34 24 27 33 29 25 23 23 22 32 26 24 22 23 25 25 24
53 51 51 49 49 49 44 42 41 39 38 39 39 37 32 28 28 29 27 35 37 37 33 36 36 35 26 27 27 25 25 27 23 25 27 32 29 26 21 23 26 30 32
56 54 54 52 53 53 44 43 41 39 38 36 37 41 35 33 30 29 27 26 29 27 29 28 27 27 31 30 30 29 28 27 26 24 27 32 29 28 28 30 30 34 36
57 55 53 53 56 57 48 42 41 40 40 37 37 42 37 34 32 29 28 27 27 27 30 30 29 29 30 30 29 30 29 29 27 22 23 29 23 25 29 31 31 32 33
54 55 52 56 58 61 54 43 40 39 36 37 36 37 44 35 32 29 29 27 27 27 27 29 29 30 30 31 32 32 29 29 27 28 24 26 33 31 33 33 33 29 26
54 49 52 54 59 62 63 54 41 37 36 34 36 37 39 40 35 31 28 27 28 32 31 30 29 29 30 30 29 28 27 33 35 32 33 30 36 51 51 41 36 41 33
49 50 48 48 52 59 65 62 50 37 32 33 33 33 37 39 37 34 30 28 28 28 25 25 26 28 29 25 26 26 28 32 37 49 54 55 63 55 45 38 33 44 46
46 45 49 52 51 56 63 58 55 45 34 31 33 36 39 40 35 36 31 31 41 30 31 29 27 29 25 23 30 40 49 47 52 61 58 64 49 41 38 38 27 35 40
43 43 44 51 54 55 60 58 51 38 32 37 33 30 32 29 32 36 34 36 40 30 28 29 28 30 31 35 44 41 41 39 36 30 29 29 28 20 21 29 38 32 41
40 43 44 46 50 54 56 53 45 38 35 29 22 26 25 26 31 36 40 35 38 34 33 28 29 36 44 42 42 33 32 30 24 19 21 13 15 22 24 28 31 26 31
41 43 46 46 55 53 49 45 41 34 26 22 23 27 30 32 33 39 36 34 39 38 29 25 29 44 46 25 23 27 27 16 16 13 16 18 18 18 23 26 29 38 47
42 45 46 45 50 49 40 46 43 26 21 23 35 33 25 27 34 33 35 38 40 34 40 35 40 43 26 23 27 24 24 23 17 25 19 18 22 23 28 32 33 37 39
41 40 38 39 50 45 51 43 31 24 20 19 19 23 23 23 26 34 39 41 36 37 32 38 33 25 23 26 26 27 28 29 29 32 32 32 36 37 37 41 39 41 43
40 35 35 37 49 45 42 30 25 21 13 8 12 17 23 27 28 32 31 39 41 39 30 25 26 28 23 28 26 28 30 29 32 36 48 51 46 45 47 46 52 48 48
37 36 36 46 44 39 31 28 26 19 14 11 9 11 17 26 28 27 26 30 31 25 26 24 33 29 26 26 25 25 28 33 38 42 51 54 60 65 59 54 54 53 54
Wind_Direction_850mb
162 168 169 173 172 171 169 168 173 175 172 168 162 154 147 142 147 155 153 152 153 155 161 168 165 159 149 151 144 133 123 120 117 111 108 106 102 100 101 102 103 85 96
163 172 173 176 172 171 169 169 171 173 172 170 167 164 157 152 156 158 157 159 158 160 163 167 170 167 165 156 148 135 127 122 117 111 110 99 96 96 102 102 105 132 100
164 174 176 178 173 172 170 167 169 171 173 173 173 171 165 161 162 161 162 165 163 161 162 164 169 173 170 162 150 141 129 120 111 103 98 87 82 84 98 103 106 109 104
169 174 178 179 175 174 170 167 169 173 176 178 179 177 174 169 166 164 166 169 169 169 171 175 179 177 171 162 150 142 133 122 113 106 66 115 102 80 87 91 98 106 104
170 174 179 178 177 177 173 170 170 173 178 183 185 184 178 174 171 168 170 172 173 174 173 174 174 173 168 160 152 149 146 138 126 87 147 119 132 258 89 93 97 98 96
170 175 178 177 179 178 176 173 172 176 181 184 185 185 181 177 174 173 174 174 175 174 172 171 173 171 167 162 161 161 156 144 120 149 149 256 174 224 123 111 93 76 86
168 172 178 179 180 181 178 175 177 180 179 182 185 186 182 181 178 177 177 176 176 175 173 172 173 172 168 167 172 172 169 158 113 215 126 112 248 261 266 236 121 115 48
171 174 180 180 183 183 181 181 182 181 179 179 183 186 186 185 183 183 182 181 180 179 176 176 177 176 175 178 185 195 195 192 234 255 272 269 256 253 275 286 290 296 308
175 173 180 181 185 186 185 187 187 186 183 181 181 184 186 189 190 191 189 188 186 185 187 187 187 187 189 199 208 215 225 232 250 269 262 260 257 269 274 277 270 275 285
178 177 177 180 186 188 188 191 192 191 188 184 183 184 187 190 196 200 201 198 196 198 198 201 203 204 210 217 225 234 246 262 259 263 269 255 280 280 286 282 270 270 281
182 183 182 184 184 182 189 193 194 196 195 191 188 188 189 193 199 206 208 208 208 209 211 215 219 220 224 230 236 244 253 251 256 265 262 269 279 281 284 273 260 263 267
184 186 186 185 185 183 189 195 196 198 198 196 195 193 193 193 201 206 214 213 215 217 221 227 231 234 237 238 251 248 253 240 250 256 261 267 275 280 286 265 255 260 267
186 186 188 188 185 186 190 194 192 196 197 198 199 202 194 201 205 205 215 216 220 224 229 233 234 237 241 238 242 247 248 252 258 260 254 263 262 260 262 261 264 267 267
191 189 190 192 192 189 192 195 196 198 200 200 203 209 202 205 210 206 212 217 218 229 226 235 236 229 233 239 241 246 254 250 257 257 259 261 258 263 263 267 270 273 275
195 194 196 194 198 198 192 199 198 200 205 205 208 212 207 208 213 213 217 216 224 225 235 232 237 245 249 247 248 253 251 252 248 245 242 262 270 282 282 278 276 269 270
198 197 196 199 202 203 201 202 203 205 212 206 211 214 214 213 222 220 222 226 230 233 234 239 244 245 253 252 257 253 250 248 250 248 256 262 258 275 291 283 276 264 270
200 196 200 204 211 210 209 212 205 215 211 215 214 215 218 219 225 216 228 232 233 241 240 243 241 247 245 249 249 252 255 260 254 257 265 272 282 286 282 275 271 274 275
198 200 200 203 213 213 216 222 217 214 218 220 219 223 220 219 218 231 231 236 240 238 242 242 244 244 243 244 254 258 269 265 263 267 279 284 294 284 273 260 269 263 264
203 201 204 207 216 216 218 220 224 219 214 220 219 217 228 223 228 234 235 238 239 240 244 244 241 238 241 251 255 265 271 275 276 277 278 283 289 279 268 247 264 269 261
204 204 205 207 212 216 218 218 226 223 215 219 216 219 226 227 232 238 238 236 245 239 244 237 241 237 257 269 279 280 274 274 283 284 277 278 262 257 271 260 270 274 270
199 200 200 205 214 217 217 215 220 217 219 215 211 218 227 232 240 240 234 242 242 234 238 256 265 264 275 274 287 294 287 270 254 256 259 265 258 275 265 273 279 275 286
200 199 201 205 212 216 215 212 214 202 205 209 215 226 241 249 245 252 244 239 245 245 237 228 240 268 278 263 269 277 279 266 262 261 245 253 260 270 283 288 283 289 288
203 208 203 197 214 210 212 214 215 198 199 211 236 238 252 250 251 243 233 246 247 236 235 243 259 264 256 262 258 257 285 279 301 295 272 274 272 290 287 287 289 286 285
207 206 199 195 214 204 213 213 199 195 204 225 237 238 244 235 244 248 245 237 234 240 245 266 259 236 247 256 259 267 262 273 286 287 274 276 285 292 295 297 290 287 289
207 197 191 188 209 208 208 203 200 194 207 210 213 223 227 244 238 241 239 235 240 255 258 245 237 246 248 252 261 267 273 275 278 280 288 289 286 289 292 290 287 284 294
194 187 183 202 200 203 204 201 192 196 177 179 214 223 235 237 238 236 226 229 240 242 249 250 247 245 241 242 252 262 271 279 282 283 284 285 289 293 292 289 287 289 291